Regional Weather Roundup
Issued by NWS

Home | Current Version | Previous Version | Graphics & Text | Print | Product List | Glossary On
Versions: 1 2 3 4 5 6 7 8 9 10 11 12 13 14 15 16 17 18 19 20 21 22 23 24 25 26 27 28 29 30 31 32 33 34 35 36 37 38 39 40 41 42 43 44 45 46 47 48 49 50
000
ASUS43 KFSD 162210
RWRSD

WEATHER ROUNDUP FOR SOUTH DAKOTA
NATIONAL WEATHER SERVICE SIOUX FALLS SD
500 PM CDT WED APR 16 2014

NOTE: "FAIR" INDICATES FEW OR NO CLOUDS BELOW 12,000 FEET WITH NO
SIGNIFICANT WEATHER AND/OR OBSTRUCTIONS TO VISIBILITY.


SDZ001>005-009-010-012>017-162300-
NORTHWEST AND NORTH CENTRAL SOUTH DAKOTA

CITY           SKY/WX    TMP DP  RH WIND       PRES   REMARKS
BUFFALO          N/A     34  23  64 NE15      30.01R WCI  24
FAITH            N/A     37  24  59 NE16      30.06R
MOBRIDGE       MOSUNNY   39  22  50 N16       30.07R
$$

SDZ012>016-024>037-041>051-057-063-072>074-162300-
SOUTHWEST AND SOUTH CENTRAL SOUTH DAKOTA

CITY           SKY/WX    TMP DP  RH WIND       PRES   REMARKS
RAPID CTY ARPT CLOUDY    45  26  47 N17       30.01R
PIERRE         CLOUDY    36  26  67 NE17G24   30.06R
CUSTER         PTSUNNY   44  20  38 VRB7      29.93S
ELLSWORTH AFB  CLOUDY    45  26  48 N9G18     30.01R
PHILIP         CLOUDY    38  26  62 NE15      30.07R
PINE RIDGE     MOSUNNY   43  31  62 N9        30.00S
SPEARFISH      CLOUDY    41  28  60 NE10      30.01R
WINNER         CLOUDY    34  26  72 N22       30.03R WCI  22
$$

SDZ004>011-016>023-039-040-162300-
NORTHEAST SOUTH DAKOTA

CITY           SKY/WX    TMP DP  RH WIND       PRES   REMARKS
ABERDEEN       CLOUDY    32  24  72 N23G29    30.08R WCI  19
WATERTOWN      CLOUDY    28  24  85 NE28G33   29.96R FOG     WCI  13
SISSETON         N/A     32  25  75 NE20      30.04R WCI  20
$$

SDZ017-020-022-023-036>040-048>070-162300-
SOUTHEAST SOUTH DAKOTA

CITY           SKY/WX    TMP DP  RH WIND       PRES   REMARKS
SIOUX FALLS    SNOW      31  30  96 N23       29.83R VSB 1/2 WCI  18
HURON          CLOUDY    32  26  78 N16G28    30.01R WCI  21
CHAMBERLAIN      N/A     33  27  78 N23G32    30.03R WCI  21
MITCHELL       CLOUDY    36  27  69 N28G35    29.97R
YANKTON        CLOUDY    34  32  93 NW31G39   29.87R WCI  20
$$

ABBREVIATIONS USED IN REMARKS
   TC - TEMPERATURE IN CELSIUS
  WCI - WIND CHILL INDEX
   HX - HEAT INDEX
  VSB - VISIBILITY




USA.gov is the U.S. government's official web portal to all federal, state and local government web resources and services.